Location: Christian Reformed Church
(43.0975°N, 93.8113°W)
Time: 10:25:30
(UTC+00:00)

IRS-P3 - Pass Details

Date: 16 March 2026
Orbit: 810 x 816 km, 99.0° (Epoch: 20 April)

Event Time Altitude Azimuth Distance (km) Brightness Sun altitude
Rises 01:13:48 0° 190° (S) 3,327 7.3 -10.3°
Reaches altitude 10° 01:16:22 10° 200° (SSW) 2,400 6.7 -10.8°
Maximum altitude 01:21:06 33° 263° (W) 1,353 6.1 -11.6°
Drops below altitude 10° 01:25:53 10° 327° (NNW) 2,415 7.2 -12.5°
Sets 01:28:29 0° 337° (NNW) 3,351 7.8 -12.9°
